User: anonymous   Login
Location: Caltech
(34.1382°N, 118.1253°W)
Time: 08:26:02
(UTC-08:00)
Language:

SEDSat Delta rocket - Orbit

View from above orbital plane
View from above orbital plane
View from above satellite
View from above satellite

Ground track
Ground track

The orbit data is extracted from the following two-line orbital elements,

1 25510U 98061C   14352.44718579  .00003260  00000-0  56977-3 0   266
2 25510 031.4381 326.7966 0332057 279.8435 229.0298 14.36103133846085
Epoch (UTC): 18 December 2014 10:43:56
Eccentricity: 0.0332057
inclination: 31.4381°
perigee height: 534 km
apogee height: 1009 km
right ascension of ascending node: 326.7966°
argument of perigee: 279.8435°
revolutions per day: 14.36103133
mean anomaly at epoch: 229.0298°
orbit number at epoch: 84608

The dashed part of the orbit path shows where the satellite is in the earth's shadow,  

DLR